Voltar ao catálogo

ARIANE 44P R/B

AtivoHEO
NORAD 24892·ROCKET BODY·🇫🇷 France

Lançado Aug 8, 1997 de Guiana Space Centre

Loading…

Próximas Passagens (próximas 24 horas)

TLE

AtualizadoSource: Space-Track

Época: Sep 14, 2026, 17:00 UTC

1 24892U 97040B   26257.70845325  .00014652  00000-0  24622-2 0  9997
2 24892   7.6779 302.3922 6154642 219.4462  73.5135  3.82203000329545

Acompanhe ARIANE 44P R/B em tempo real com AllMySat

Download on the App Store